Location: Ellerstadt
(49.4644°N, 8.2615°E)
Time: 03:37:32
(UTC+00:00)

Meteor 1-23 Rocket - Pass Details

Date: 03 March 2021
Orbit: 838 x 888 km, 81.3° (Epoch: 16 April)

Event Time Altitude Azimuth Distance (km) Brightness Sun altitude
Rises 19:20:52 0° 349° (N) 3,406 7.7 -21.4°
Reaches altitude 10° 19:23:19 10° 353° (N) 2,471 6.9 -21.8°
Maximum altitude 19:28:53 66° 75° (ENE) 926 4.1 -22.6°
Enters shadow 19:30:16 49° 134° (SE) 1,089 4.4 -22.8°
